Regional Weather Roundup
Issued by NWS

Home | Current Version | Previous Version | Graphics & Text | Print | Product List | Glossary On
Versions: 1 2 3 4 5 6 7 8 9 10 11 12 13 14 15 16 17 18 19 20 21 22 23 24 25 26 27 28 29 30 31 32 33 34 35 36 37 38 39 40 41 42 43 44 45 46 47 48 49 50
000
ASUS45 KTFX 191110
RWRMT
MONTANA REGIONAL WEATHER ROUNDUP
NATIONAL WEATHER SERVICE GREAT FALLS MT
500 AM MDT TUE SEP 19 2017

NOTE: "FAIR" INDICATES FEW OR NO CLOUDS BELOW 12000 FEET WITH NO
SIGNIFICANT WEATHER AND/OR OBSTRUCTIONS TO VISIBILITY.

MTZ001>007-043-191200-
WEST OF THE DIVIDE

CITY           SKY/WX    TMP DP  RH WIND       PRES   REMARKS
KALISPELL      CLOUDY    42  40  92 N8        29.70F
MISSOULA       HAZE      37  32  82 NW5       29.73S VSB 1
BUTTE          CLOUDY    37  36  96 SE3       29.72R
MULLAN PASS    SNOW      32  30  92 W3        29.70S VSB 1/4
ANACONDA         N/A     37  34  87 CALM      29.73R
DEER LODGE       N/A     36  36 100 SW3       29.73S
HAMILTON         N/A     43  36  75 CALM      29.73R
LIBBY            N/A     41  41 100 CALM      29.71S
$$

MTZ008-052>055-191200-
SOUTHWEST MONTANA

CITY           SKY/WX    TMP DP  RH WIND       PRES   REMARKS
BOZEMAN        CLOUDY    42  38  85 SE9       29.68F
DILLON         CLOUDY    39  34  82 SW10      29.71R
W YELLOWSTONE  LGT SNOW  32  32 100 S5        29.73S
ENNIS          CLOUDY    39  36  87 S8        29.76S
THREE FORKS      N/A     44  41  89 CALM      29.71S
$$

MTZ009-010-012-014-046-048-049-054-191200-
EAST SLOPES AND CENTRAL MONTANA

CITY           SKY/WX    TMP DP  RH WIND       PRES   REMARKS
CUT BANK       MOCLDY    37  32  82 W12       29.59F WCI  29
GREAT FALLS    CLOUDY    44  33  65 SW10      29.63S
MALMSTROM AFB  CLOUDY    45  35  69 SW13      29.63S
HELENA         CLOUDY    46  34  62 W9        29.68R
BOWMANS CRNR   MOCLDY    39  32  76 MISG      29.63R
CHOTEAU          N/A     41  30  65 NW8       29.64R
FAIRFIELD      MOCLDY    41  33  73 W5        29.62R
POWER            N/A     39  34  81 SW8       29.62S
RAYNESFORD     CLOUDY    47  31  54 SW14      29.63S
ULM            MOCLDY    44  34  66 SW7       29.64R
$$

MTZ011-013-016-021-045-047-050-051-191200-
NORTH CENTRAL MONTANA

CITY           SKY/WX    TMP DP  RH WIND       PRES   REMARKS
HAVRE          CLOUDY    48  40  73 SW9       29.57S
LEWISTOWN      CLOUDY    44  40  85 W6        29.62S
N BAR RANCH    CLOUDY    46  36  66 W14G29    29.63R
CHINOOK          N/A     52  37  58 W8        29.55S
DENTON           N/A     46  37  69 W9        29.59R
GEYSER         MOCLDY    44  35  72 W12       29.63R
GRASS RANGE    CLOUDY    48  37  65 W13       29.57R
JUDITH GAP     CLOUDY    46  33  60 NW7       29.62R
WINIFRED       CLOUDY    46  37  70 W10       29.60R
$$

MTZ017>020-022>027-061-062-191200-
NORTHEAST MONTANA

CITY           SKY/WX    TMP DP  RH WIND       PRES   REMARKS
GLASGOW        CLOUDY    52  47  83 NW8       29.51S
JORDAN           N/A     53  48  83 NW10      29.52S
SIDNEY         CLOUDY    56  49  77 NE6       29.44F
WOLF POINT     CLOUDY    59  48  67 NW15G24   29.44F
MALTA          MOCLDY    52  43  71 W12       29.54S
PLENTYWOOD       N/A     57  45  62 CALM      29.48F
POPLAR           N/A     55  46  71 SW3       29.49R
SCOBEY           N/A     53  41  64 CALM      29.53F
$$

MTZ028>42-056>058-191200-
SOUTHCENTRAL AND SOUTHEAST MONTANA

CITY           SKY/WX    TMP DP  RH WIND       PRES   REMARKS
BAKER          CLOUDY    59  43  55 W12       29.48F
BILLINGS       CLOUDY    52  41  66 W15       29.59S
LIVINGSTON     LGT RAIN  42  38  85 SW13      29.67F
MILES CITY     CLOUDY    57  47  69 W8        29.52R
BIG TIMBER     CLOUDY    43  37  81 SW17      29.67S
HARLOWTON      MOCLDY    46  35  66 MISG      29.64R
LAUREL           N/A     50  41  71 W18G25    29.62R
$$

REGIONAL REPORTS...DAKOTAS

CITY           SKY/WX    TMP DP  RH WIND       PRES   REMARKS
WILLISTON      CLOUDY    62  46  55 E8        29.48S
MINOT          PTCLDY    53  49  86 E10       29.57F
DICKINSON      CLOUDY    57  51  80 E10       29.45F
BEACH            N/A     57  48  72 SW7       29.49S
CROSBY           N/A     59  41  51 E8        29.51F
TIOGA            N/A     57  46  67 SE22G30   29.50F
WATFORD CITY     N/A     59  48  67 VRB5      29.48R
BISMARCK       CLOUDY    59  57  93 E13       29.57F
GRAND FORKS    CLOUDY    59  59 100 SE10      29.78F FOG
FARGO          CLOUDY    61  60  97 SE12      29.78F FOG
BUFFALO SD       N/A     60  43  53 W9        29.44R
$$

REGIONAL REPORTS...WYOMING/IDAHO/WASHINGTON

CITY           SKY/WX    TMP DP  RH WIND       PRES   REMARKS
GILLETTE       CLOUDY    53  42  66 CALM      29.60F
SHERIDAN       CLOUDY    63  38  39 SW9       29.56F
BUFFALO WY     CLOUDY    52  41  66 S7        29.62S
CODY           CLOUDY    48  40  73 CALM      29.65R
YELLOWSTONE LA   N/A     32  32 100 CALM      29.74S
IDAHO FALLS    CLOUDY    44  41  89 S18       29.77S
SALMON         CLOUDY    41  39  93 SE3       29.77R
BOISE          CLOUDY    47  44  90 E3        29.83R
SPOKANE        CLOUDY    45  41  86 S12       29.69F
$$

REGIONAL REPORTS...ALBERTA

CITY           SKY/WX    TMP DP  RH WIND       PRES   REMARKS
EDMONTON       CLOUDY    43  41  93 W8        29.44S
CALGARY        PTCLDY    36  30  80 N5        29.56F
LETHBRIDGE     MOCLDY    41  32  70 W9        29.60R
MEDICINE HAT   MOCLDY    41  39  93 SW12      29.53R
$$

REGIONAL REPORTS...SASKATCHEWAN

CITY           SKY/WX    TMP DP  RH WIND       PRES   REMARKS
SWIFT CURRENT  CLOUDY    48  45  87 W15       29.50R
REGINA         LGT RAIN  57  46  67 SE16      29.54S
SASKATOON      LGT RAIN  57  45  62 SE9       29.49R
$$



USA.gov is the U.S. government's official web portal to all federal, state and local government web resources and services.